[[{"header":{"parameterUnit":"m.s-1","parameterCategory":2,"la1":30.2991,"la2":30.254,"lo1":-89.0895,"lo2":-89.0444,"dy":0.0017,"dx":0.0017,"nx":28,"ny":28,"refTime":"2025-11-11T03:00:00:Z","depth":"0","parameterNumber":2,"parameterNumberName":"U-component_of_CURRENTS"},"data":[0,0,0,0,0,0,0,0,0,0,0,0,0,0,0,0,0,0,0,0,0,0,0,0,0,0,0,0,0,0,0,0,0,0,0,0,0,0,0,0,0,0,0,0,0,0,0,0,0,0,0,0,0,0,0,0,0,0,0.4648,0.4648,0,0.4648,0.4648,0.4647,0.4613,0.4613,0.4612,0.4611,0.4573,0.4573,0.4573,0,0,0,0,0,0,0,0,0,0,0,0,0,0.462,0.4621,0.4648,0.4648,0.4648,0.4648,0.4648,0.4647,0.4613,0.4613,0.4612,0.4611,0.4574,0.4573,0.4573,0,0,0,0,0,0,0,0,0,0,0,0,0,0.4625,0.4621,0.4648,0.4633,0.4632,0.4648,0.4648,0.4647,0.4614,0.4613,0.4612,0.4611,0.4574,0.4573,0.4573,0.4589,0,0,0.4571,0.4571,0,0,0,0,0,0,0,0,0.4625,0.4626,0.4635,0.4634,0.4633,0.4632,0.4624,0.4627,0.4614,0.4618,0.4611,0.461,0.4592,0.459,0.4589,0.4587,0.4585,0.4571,0.457,0.457,0.457,0,0,0,0,0,0,0,0.4624,0.4626,0.4645,0.4636,0.4634,0.4628,0.4627,0.4624,0.4608,0.4617,0.4616,0.462,0.4591,0.459,0.4588,0.4585,0.4571,0.457,0.457,0.457,0.4608,0.4609,0,0,0,0,0,0,0.4631,0.4625,0.4645,0.4646,0.4629,0.4629,0.4628,0.4631,0.4609,0.4605,0.4621,0.4619,0.4591,0.4588,0.4586,0.4597,0.457,0.457,0.4569,0.4607,0.4608,0.461,0,0,0,0,0,0,0.463,0.4633,0.4645,0.4637,0.4639,0.4631,0.4634,0.4632,0.4631,0.4612,0.4607,0.4623,0.459,0.4587,0.4585,0.4595,0.4569,0.4569,0.4605,0.4607,0.4609,0.4623,0,0,0,0,0,0,0.4629,0.4632,0.4635,0.4638,0.464,0.4652,0.4636,0.4633,0.4636,0.4633,0.4612,0.4608,0.4589,0.4586,0.4585,0.4594,0.4568,0.4603,0.4606,0.4608,0.4621,0.4625,0.4629,0,0,0,0,0,0.4628,0.4633,0.4635,0.4638,0.4644,0.4653,0.4653,0.4642,0.4637,0.4637,0.4626,0.4608,0.4602,0.4587,0.4584,0.4594,0.4602,0.4605,0.4608,0.4619,0.4624,0.4629,0,0,0,0,0,0,0.462,0.4631,0.4633,0.464,0.4647,0.4648,0.4647,0.4649,0.4642,0.4637,0.4619,0.4614,0.4615,0.4613,0.4596,0.4617,0.4602,0.4605,0.4611,0.4616,0.462,0.4601,0.4568,0,0,0,0,0,0.4624,0.4627,0.464,0.4644,0.465,0.4653,0.4655,0.4653,0.4651,0.4646,0.4629,0.4625,0.4629,0.4628,0.4621,0.4634,0.4652,0.4644,0.4648,0.4651,0.4637,0.4684,0.4691,0.462,0.462,0.462,0,0,0.4618,0.4628,0.4627,0.4643,0.4646,0.4647,0.465,0.4657,0.4655,0.4645,0.4628,0.4632,0.4635,0.464,0.4643,0.4638,0.4688,0.4655,0.4657,0.4641,0.4688,0.4695,0.4701,0.4622,0.4622,0.4621,0,0,0.4611,0.4623,0.4623,0.4631,0.4645,0.4647,0.4653,0.4656,0.4653,0.4653,0.4648,0.4657,0.4654,0.4657,0.4662,0.4692,0.4704,0.4702,0.4707,0.4754,0.476,0.4765,0.4823,0.4834,0.4709,0.4709,0.4709,0,0.4603,0.4606,0.4624,0.4628,0.4631,0.4647,0.4646,0.4652,0.465,0.4658,0.4646,0.4662,0.4658,0.4683,0.4689,0.4697,0.4734,0.4683,0.4758,0.4763,0.4768,0.4827,0.4838,0.471,0.471,0.471,0.471,0,0.46,0.4597,0.4598,0.4604,0.4616,0.4616,0.4633,0.4638,0.4641,0.465,0.4668,0.467,0.4682,0.4694,0.4694,0.4736,0.4757,0.4753,0.474,0.4776,0.4836,0.4847,0.4711,0.4711,0.4711,0.4711,0,0,0.4581,0.459,0.4588,0.457,0.4602,0.4594,0.4618,0.4636,0.4644,0.4654,0.4668,0.4683,0.4696,0.4704,0.4718,0.4754,0.4826,0.4768,0.4771,0.4817,0.4951,0.4806,0.4805,0.4844,0.4845,0.4846,0.4989,0,0.4563,0.4547,0.4574,0.4544,0.4528,0.4564,0.4581,0.4607,0.4631,0.4648,0.4683,0.4695,0.4701,0.471,0.4751,0.4802,0.4852,0.4789,0.4917,0.492,0.4778,0.481,0.4494,0.4579,0.4999,0.5001,0.5002,0,0.4547,0.453,0.451,0.4492,0.4493,0.4492,0.4517,0.4539,0.4602,0.4631,0.4675,0.4696,0.4752,0.4744,0.4862,0.4828,0.4887,0.4927,0.4934,0.4791,0.4793,0.4607,0.4583,0.4437,0.5019,0.5018,0.5017,0,0.4494,0.4475,0.4448,0.4445,0.4449,0.4453,0.4467,0.453,0.4548,0.4624,0.4642,0.4723,0.4752,0.4839,0.4912,0.4905,0.5039,0.5045,0.4977,0.497,0.4716,0.4681,0.4543,0.5127,0.5126,0.5126,0.5125,0,0.4457,0.4418,0.441,0.4387,0.4351,0.4395,0.4391,0.4437,0.4506,0.4527,0.4621,0.464,0.4775,0.4854,0.4934,0.4978,0.5068,0.4971,0.4986,0.4714,0.4679,0.4551,0.4535,0.5131,0.513,0.5129,0.5128,0,0.4391,0.4399,0.4343,0.433,0.4322,0.4299,0.432,0.4322,0.4417,0.445,0.4472,0.4598,0.4703,0.4825,0.4976,0.4978,0.4894,0.5051,0.4723,0.4692,0.4437,0.4435,0.4263,0.416,0.4991,0.4988,0.4986,0,0.4346,0.4321,0.428,0.4235,0.422,0.4195,0.4188,0.4272,0.4295,0.4405,0.4417,0.4527,0.4582,0.4745,0.4756,0.4857,0.4792,0.4628,0.4525,0.4358,0.4371,0.4296,0.4218,0.4232,0.4223,0.4217,0.4211,0,0.4242,0.4245,0.4201,0.4118,0.4079,0.4046,0.405,0.4064,0.4178,0.4198,0.4248,0.4296,0.4411,0.4342,0.4454,0.4474,0.4341,0.4486,0.4389,0.3806,0.364,0.3567,0.4242,0.4149,0.4155,0.416,0.4163,0.4166,0.4147,0.41,0.4046,0.395,0.3917,0.3883,0.3825,0.3862,0.387,0.3867,0.402,0.3976,0.3975,0.4049,0.406,0.3785,0.3942,0.3645,0.3683,0.3644,0.3419,0.3954,0.382,0.3824,0.3827,0.383,0.3833,0,0.3976,0.3934,0.3859,0.3753,0.3656,0.3702,0.3699,0.3621,0.3565,0.3606,0.3594,0.3455,0.3355,0.3348,0.3127,0.2996,0.2915,0.2917,0.2723,0.2714,0.3227,0.3059,0.2657,0.2657,0.2657,0.2657,0.2657,0.2657,0.3864,0.3748,0.3711,0.3496,0.3433,0.3291,0.3265,0.3194,0.318,0.2991,0.2855,0.2872,0.2874,0.2702,0.2459,0.2396,0.2286,0.2125,0.2292,0.2613,0.2683,0.275,0.2584,0.2088,0.2087,0.1577,0.1573,0.157]},{"header":{"parameterUnit":"m.s-1","parameterCategory":2,"la1":30.2991,"la2":30.254,"lo1":-89.0895,"lo2":-89.0444,"dy":0.0017,"dx":0.0017,"nx":28,"ny":28,"refTime":"2025-11-11T03:00:00:Z","depth":"0","parameterNumber":3,"parameterNumberName":"V-component_of_CURRENTS"},"data":[0,0,0,0,0,0,0,0,0,0,0,0,0,0,0,0,0,0,0,0,0,0,0,0,0,0,0,0,0,0,0,0,0,0,0,0,0,0,0,0,0,0,0,0,0,0,0,0,0,0,0,0,0,0,0,0,0,0,-0.0811,-0.0812,0,-0.0861,-0.0862,-0.0863,-0.0897,-0.0897,-0.0897,-0.0897,-0.0932,-0.0933,-0.0933,0,0,0,0,0,0,0,0,0,0,0,0,0,-0.0762,-0.0762,-0.0811,-0.0812,-0.0812,-0.0861,-0.0862,-0.0863,-0.0897,-0.0897,-0.0897,-0.0897,-0.0932,-0.0933,-0.0934,0,0,0,0,0,0,0,0,0,0,0,0,0,-0.0795,-0.0762,-0.0811,-0.0834,-0.0837,-0.0861,-0.0862,-0.0863,-0.0897,-0.0897,-0.0897,-0.0897,-0.0931,-0.0932,-0.0934,-0.0936,0,0,-0.0937,-0.0938,0,0,0,0,0,0,0,0,-0.0793,-0.0797,-0.0831,-0.0833,-0.0836,-0.0872,-0.0857,-0.0886,-0.0896,-0.0875,-0.0897,-0.0897,-0.091,-0.0913,-0.0923,-0.0938,-0.0939,-0.0937,-0.0938,-0.0939,-0.0939,0,0,0,0,0,0,0,-0.0791,-0.0795,-0.0832,-0.0831,-0.0834,-0.0848,-0.0853,-0.0863,-0.0891,-0.0877,-0.0879,-0.0883,-0.0911,-0.0922,-0.0924,-0.094,-0.0937,-0.0938,-0.0939,-0.094,-0.0941,-0.0941,0,0,0,0,0,0,-0.0782,-0.0793,-0.0831,-0.0834,-0.0814,-0.0848,-0.0854,-0.0861,-0.0891,-0.0896,-0.0883,-0.0884,-0.092,-0.0923,-0.0925,-0.0898,-0.0939,-0.094,-0.094,-0.0942,-0.0941,-0.0941,0,0,0,0,0,0,-0.0781,-0.0785,-0.0829,-0.0813,-0.082,-0.0849,-0.0856,-0.0862,-0.087,-0.0896,-0.09,-0.0885,-0.092,-0.0924,-0.0933,-0.0901,-0.094,-0.0941,-0.0943,-0.0942,-0.0941,-0.0865,0,0,0,0,0,0,-0.0779,-0.0784,-0.0787,-0.0813,-0.082,-0.0834,-0.0856,-0.0863,-0.0871,-0.0874,-0.0899,-0.0903,-0.0921,-0.0931,-0.0934,-0.0904,-0.0942,-0.0944,-0.0942,-0.0941,-0.0868,-0.0861,-0.0855,0,0,0,0,0,-0.0777,-0.0781,-0.0787,-0.0792,-0.0823,-0.0833,-0.0838,-0.0861,-0.0871,-0.087,-0.089,-0.0902,-0.0925,-0.0932,-0.0936,-0.0904,-0.0944,-0.0943,-0.0941,-0.0871,-0.0863,-0.0856,0,0,0,0,0,0,-0.0769,-0.0786,-0.0793,-0.0804,-0.0812,-0.0839,-0.0844,-0.0855,-0.0871,-0.0875,-0.0899,-0.0904,-0.0899,-0.0917,-0.0924,-0.0903,-0.0934,-0.0933,-0.0879,-0.0871,-0.0865,-0.0826,-0.0943,0,0,0,0,0,-0.0765,-0.0768,-0.0785,-0.0792,-0.0796,-0.0817,-0.0825,-0.0836,-0.0853,-0.0861,-0.0876,-0.0891,-0.0896,-0.0897,-0.091,-0.09,-0.0899,-0.0882,-0.0876,-0.087,-0.0842,-0.0827,-0.0816,-0.0936,-0.0936,-0.0936,0,0,-0.0764,-0.0773,-0.0776,-0.0789,-0.0801,-0.0786,-0.0823,-0.0829,-0.0807,-0.0861,-0.0844,-0.0873,-0.0891,-0.0881,-0.0878,-0.089,-0.0836,-0.0868,-0.0863,-0.0837,-0.0824,-0.0813,-0.0802,-0.0935,-0.0935,-0.0935,0,0,-0.0749,-0.077,-0.0759,-0.0758,-0.0765,-0.0771,-0.0767,-0.0784,-0.0785,-0.0781,-0.0807,-0.0811,-0.0831,-0.0825,-0.0827,-0.0792,-0.0807,-0.0805,-0.0734,-0.0721,-0.071,-0.0701,-0.0682,-0.0671,-0.0797,-0.0797,-0.0797,0,-0.0746,-0.0725,-0.0757,-0.0738,-0.0715,-0.0755,-0.0715,-0.0727,-0.0743,-0.0718,-0.0765,-0.0763,-0.0793,-0.0747,-0.0746,-0.0772,-0.0773,-0.076,-0.071,-0.07,-0.0692,-0.0675,-0.0664,-0.0793,-0.0793,-0.0794,-0.0794,0,-0.0713,-0.0688,-0.0681,-0.0657,-0.0646,-0.0622,-0.0627,-0.0614,-0.0624,-0.0626,-0.0601,-0.0653,-0.0643,-0.066,-0.0697,-0.0644,-0.0668,-0.0707,-0.0723,-0.0675,-0.0661,-0.0651,-0.0787,-0.0789,-0.079,-0.0791,0,0,-0.0699,-0.0661,-0.0651,-0.0592,-0.0588,-0.0556,-0.0525,-0.0477,-0.0422,-0.047,-0.0403,-0.0445,-0.0482,-0.0487,-0.0535,-0.0533,-0.0495,-0.0595,-0.0597,-0.0564,-0.0461,-0.0413,-0.0399,-0.0533,-0.0531,-0.0529,-0.0474,0,-0.0644,-0.0563,-0.0566,-0.046,-0.0402,-0.0405,-0.036,-0.033,-0.0323,-0.0282,-0.033,-0.0314,-0.0414,-0.0417,-0.0429,-0.0479,-0.0466,-0.0505,-0.0521,-0.0521,-0.0475,-0.0384,-0.0351,-0.0292,-0.0464,-0.0463,-0.0461,0,-0.0586,-0.0526,-0.0423,-0.0303,-0.028,-0.0236,-0.0123,-0.0086,-0.0061,-0.0065,-0.0072,-0.0132,-0.0143,-0.0248,-0.0284,-0.0311,-0.0369,-0.0415,-0.0414,-0.0382,-0.0454,-0.037,-0.0269,-0.0386,-0.0447,-0.0448,-0.0449,0,-0.0502,-0.0403,-0.0298,-0.0265,-0.0175,-0.0113,-0.0059,-0.0011,0.0048,0.0071,0.0093,0.0054,0.0036,-0.0044,-0.0168,-0.0226,-0.0201,-0.0292,-0.0291,-0.029,-0.0265,-0.0263,-0.0262,-0.0287,-0.0287,-0.0287,-0.0288,0,-0.0415,-0.0319,-0.0245,-0.0182,-0.0034,-0.0009,0.0128,0.0168,0.0217,0.0307,0.0205,0.0249,0.0082,0.005,-0.008,-0.0131,-0.0129,-0.0234,-0.0253,-0.0238,-0.0235,-0.0341,-0.043,-0.0285,-0.0286,-0.0286,-0.0287,0,-0.0333,-0.0295,-0.0155,-0.0041,0.0008,0.0115,0.024,0.033,0.0352,0.0462,0.0463,0.0414,0.0383,0.0242,0.0139,0.0012,-0.01,-0.0081,-0.0045,-0.0059,-0.0184,-0.0268,-0.0247,-0.0267,-0.0067,-0.0065,-0.0063,0,-0.028,-0.0205,-0.0054,0.0036,0.0093,0.0236,0.0327,0.0391,0.0478,0.0575,0.0633,0.0628,0.0663,0.0538,0.0332,0.0184,0.0021,0.0082,-0.0017,-0.0133,-0.0244,-0.0309,-0.0333,0.0034,0.0037,0.0038,0.004,0,-0.0163,-0.0126,-0.0022,0.0144,0.0265,0.0401,0.0535,0.0616,0.0701,0.0802,0.0926,0.0972,0.087,0.0748,0.0533,0.0393,0.0028,0.0115,-0.0016,-0.0143,-0.02,-0.0248,-0.0069,0.0056,0.0054,0.0053,0.0052,0.0052,-0.0079,-0.0001,0.0116,0.0278,0.041,0.0547,0.0657,0.0793,0.0955,0.113,0.1164,0.1303,0.1076,0.0806,0.0601,0.0216,0.0184,0.0062,-0.0024,-0.0073,-0.01,0.0136,0.0241,0.0241,0.024,0.024,0.0239,0,0.0034,0.0109,0.0254,0.0426,0.0561,0.0608,0.0786,0.0895,0.1096,0.1315,0.1469,0.1487,0.1222,0.0872,0.035,0.0093,-0.0022,-0.006,-0.0177,-0.0192,0.0014,0.0008,0.0083,0.0083,0.0083,0.0083,0.0083,0.0083,0.0108,0.0235,0.029,0.0519,0.0633,0.0794,0.0886,0.1063,0.1244,0.1526,0.1673,0.176,0.1473,0.0577,-0.0009,-0.0133,-0.0327,-0.0339,-0.0432,-0.0356,-0.0354,-0.0351,-0.0377,-0.0384,-0.0385,-0.0595,-0.0598,-0.06]}],[{"header":{"parameterUnit":"m.s-1","parameterCategory":2,"la1":30.2991,"la2":30.254,"lo1":-89.0895,"lo2":-89.0444,"dy":0.0017,"dx":0.0017,"nx":28,"ny":28,"refTime":"2025-11-11T03:00:00:Z","depth":"2","parameterNumber":2,"parameterNumberName":"U-component_of_CURRENTS"},"data":[0,0,0,0,0,0,0,0,0,0,0,0,0,0,0,0,0,0,0,0,0,0,0,0,0,0,0,0,0,0,0,0,0,0,0,0,0,0,0,0,0,0,0,0,0,0,0,0,0,0,0,0,0,0,0,0,0,0,0.2493,0.2492,0,0.2417,0.2416,0.2414,0.2324,0.2323,0.2322,0.2321,0.2232,0.223,0.2229,0,0,0,0,0,0,0,0,0,0,0,0,0,0.2528,0.2528,0.2493,0.2492,0.2492,0.2417,0.2416,0.2414,0.2324,0.2323,0.2322,0.2321,0.2232,0.223,0.2229,0,0,0,0,0,0,0,0,0,0,0,0,0,0.2484,0.2528,0.2493,0.2441,0.2436,0.2417,0.2416,0.2414,0.2324,0.2323,0.2321,0.232,0.2233,0.2231,0.2228,0.2244,0,0,0.2222,0.2221,0,0,0,0,0,0,0,0,0.2487,0.2482,0.2449,0.2445,0.2439,0.2382,0.2395,0.2358,0.2325,0.2362,0.2321,0.2319,0.2285,0.2278,0.2261,0.224,0.2236,0.2221,0.222,0.2219,0.2219,0,0,0,0,0,0,0,0.249,0.2485,0.2458,0.2449,0.2443,0.2411,0.2403,0.2387,0.2329,0.2359,0.2353,0.2352,0.2281,0.2263,0.2258,0.2234,0.2222,0.222,0.2218,0.2217,0.231,0.2313,0,0,0,0,0,0,0.2512,0.2488,0.2461,0.2456,0.2465,0.2412,0.2403,0.2398,0.2329,0.2318,0.2354,0.2349,0.2268,0.2261,0.2255,0.2337,0.2219,0.2217,0.2216,0.2306,0.2311,0.2315,0,0,0,0,0,0,0.2513,0.251,0.2464,0.2474,0.2467,0.2414,0.2409,0.2398,0.2398,0.2326,0.2314,0.2369,0.2266,0.2258,0.2265,0.233,0.2216,0.2214,0.2302,0.2307,0.2313,0.2458,0,0,0,0,0,0,0.2514,0.2511,0.2531,0.2476,0.2467,0.2478,0.2411,0.2397,0.2401,0.2394,0.2336,0.2324,0.2265,0.2269,0.2262,0.2325,0.2212,0.2297,0.2304,0.2311,0.2448,0.2468,0.2484,0,0,0,0,0,0.2516,0.2542,0.2532,0.253,0.2491,0.2481,0.2474,0.2427,0.2404,0.242,0.238,0.2327,0.231,0.2269,0.2261,0.2325,0.2293,0.2302,0.231,0.244,0.2464,0.2484,0,0,0,0,0,0,0.2584,0.2534,0.2522,0.2537,0.2527,0.2468,0.2481,0.2455,0.2435,0.2433,0.2358,0.2346,0.2384,0.2343,0.23,0.2378,0.2301,0.2308,0.2403,0.2424,0.2442,0.2488,0.2211,0,0,0,0,0,0.261,0.2604,0.257,0.259,0.2588,0.2546,0.2542,0.2516,0.2486,0.2475,0.2439,0.2416,0.2413,0.2407,0.2395,0.2428,0.2454,0.2472,0.2491,0.2506,0.2542,0.2644,0.2675,0.2343,0.2343,0.2342,0,0,0.2645,0.2618,0.2619,0.2604,0.2587,0.2596,0.2539,0.255,0.2566,0.2473,0.2497,0.2479,0.2439,0.2475,0.249,0.2446,0.2619,0.2517,0.253,0.2558,0.2657,0.2689,0.2718,0.2348,0.2347,0.2346,0,0,0.2704,0.2691,0.2705,0.2697,0.2688,0.2661,0.2677,0.2648,0.2647,0.2668,0.262,0.2647,0.2623,0.2619,0.2608,0.2728,0.2716,0.2732,0.2851,0.295,0.2978,0.3003,0.3094,0.3126,0.2735,0.2736,0.2736,0,0.2761,0.2771,0.2718,0.2731,0.275,0.2699,0.2744,0.2727,0.271,0.275,0.2699,0.2742,0.2696,0.2766,0.2801,0.2769,0.2828,0.2761,0.2975,0.3,0.3023,0.311,0.3144,0.2744,0.2743,0.2742,0.2741,0,0.2807,0.2841,0.2857,0.285,0.2857,0.2896,0.2868,0.2897,0.2895,0.2894,0.2981,0.2932,0.2969,0.296,0.2905,0.3059,0.305,0.2988,0.2917,0.3066,0.3147,0.318,0.2755,0.2752,0.275,0.2748,0,0,0.2889,0.2897,0.291,0.2926,0.2939,0.2932,0.3,0.3056,0.311,0.3116,0.3214,0.3218,0.3225,0.3219,0.3177,0.3244,0.3439,0.3201,0.3202,0.329,0.3687,0.3371,0.3375,0.3427,0.3433,0.3438,0.3682,0,0.2971,0.3009,0.3018,0.308,0.3094,0.311,0.3167,0.3203,0.3239,0.3308,0.3322,0.3372,0.331,0.3334,0.3412,0.3409,0.3531,0.338,0.3532,0.3537,0.3236,0.3403,0.3113,0.3279,0.3713,0.3719,0.3722,0,0.301,0.3034,0.3111,0.3173,0.3193,0.3222,0.3319,0.3372,0.3467,0.352,0.3613,0.36,0.3699,0.361,0.3775,0.3689,0.3745,0.3744,0.3752,0.343,0.328,0.3199,0.332,0.3776,0.3772,0.3768,0.3764,0,0.2988,0.3096,0.316,0.3175,0.3238,0.33,0.3344,0.3436,0.3485,0.3649,0.3682,0.3837,0.3835,0.3975,0.391,0.391,0.4048,0.4042,0.3842,0.3821,0.3586,0.3529,0.4248,0.4248,0.4248,0.4247,0.4246,0,0.3014,0.3057,0.3147,0.3142,0.3233,0.3291,0.3382,0.3473,0.3593,0.3631,0.3769,0.3779,0.3924,0.3951,0.4014,0.3962,0.4148,0.3912,0.3873,0.3622,0.3568,0.3989,0.3955,0.4256,0.4254,0.4252,0.4251,0,0.2918,0.3003,0.306,0.3167,0.3188,0.3237,0.3319,0.3373,0.3523,0.3575,0.3621,0.3755,0.3803,0.3871,0.4024,0.3988,0.4033,0.398,0.3643,0.3555,0.3765,0.3738,0.3921,0.3912,0.3904,0.3898,0.3893,0,0.2859,0.2878,0.2993,0.3025,0.3066,0.3131,0.3153,0.3311,0.3328,0.3491,0.3467,0.3566,0.3531,0.3605,0.3609,0.3694,0.3828,0.3451,0.3386,0.3794,0.374,0.3723,0.3706,0.3189,0.3179,0.317,0.3163,0,0.2768,0.2831,0.2859,0.2885,0.2928,0.2967,0.2984,0.2981,0.314,0.3187,0.3199,0.3212,0.3229,0.3111,0.314,0.3165,0.3415,0.3269,0.3846,0.3229,0.3099,0.3045,0.3055,0.3086,0.3094,0.3099,0.3104,0.3107,0.2718,0.269,0.2731,0.2751,0.2799,0.2783,0.2712,0.2732,0.2744,0.2726,0.2834,0.2757,0.2782,0.2653,0.2604,0.263,0.2907,0.2864,0.2897,0.2938,0.2721,0.2574,0.2428,0.2432,0.2435,0.2438,0.2441,0,0.2628,0.2599,0.2582,0.2588,0.2551,0.2635,0.2576,0.2467,0.2378,0.2398,0.2356,0.2125,0.203,0.2107,0.2021,0.2043,0.2116,0.1985,0.2084,0.2159,0.2226,0.1979,0.1488,0.1485,0.1482,0.148,0,0,0.2582,0.2514,0.2452,0.2367,0.2343,0.2213,0.2147,0.2025,0.1969,0.1833,0.1767,0.1838,0.1962,0.1653,0.1649,0.155,0.1846,0.1493,0.2253,0.2438,0.2502,0.2722,0.2419,0,0,0,0,0]},{"header":{"parameterUnit":"m.s-1","parameterCategory":2,"la1":30.2991,"la2":30.254,"lo1":-89.0895,"lo2":-89.0444,"dy":0.0017,"dx":0.0017,"nx":28,"ny":28,"refTime":"2025-11-11T03:00:00:Z","depth":"2","parameterNumber":3,"parameterNumberName":"V-component_of_CURRENTS"},"data":[0,0,0,0,0,0,0,0,0,0,0,0,0,0,0,0,0,0,0,0,0,0,0,0,0,0,0,0,0,0,0,0,0,0,0,0,0,0,0,0,0,0,0,0,0,0,0,0,0,0,0,0,0,0,0,0,0,0,0.0268,0.0267,0,0.0215,0.0215,0.0214,0.0126,0.0125,0.0123,0.0122,0.0006,0.0004,0.0002,0,0,0,0,0,0,0,0,0,0,0,0,0,0.0218,0.022,0.0268,0.0267,0.0267,0.0216,0.0214,0.0213,0.0126,0.0124,0.0123,0.0121,0.0006,0.0004,0.0002,0,0,0,0,0,0,0,0,0,0,0,0,0,0.0207,0.022,0.0268,0.0219,0.0215,0.0216,0.0214,0.0213,0.0126,0.0124,0.0122,0.0121,0.0007,0.0004,0.0001,0.0024,0,0,-0.0007,-0.0008,0,0,0,0,0,0,0,0,0.0208,0.0209,0.0227,0.0223,0.0218,0.0178,0.0155,0.0148,0.0127,0.0157,0.0122,0.012,0.0061,0.0054,0.0044,0.0019,0.0014,-0.0007,-0.0009,-0.001,-0.0011,0,0,0,0,0,0,0,0.0209,0.021,0.0243,0.0227,0.0221,0.0176,0.0172,0.0153,0.0117,0.0154,0.0148,0.0148,0.0057,0.0047,0.0041,0.0012,-0.0007,-0.001,-0.0011,-0.0013,-0.0087,-0.0087,0,0,0,0,0,0,0.0229,0.0212,0.0245,0.0242,0.0212,0.0179,0.0175,0.019,0.0118,0.0107,0.015,0.0144,0.0053,0.0044,0.0036,-0.002,-0.001,-0.0013,-0.0014,-0.0086,-0.0087,-0.0087,0,0,0,0,0,0,0.0228,0.0233,0.0247,0.0227,0.0226,0.0183,0.02,0.019,0.0145,0.0117,0.0103,0.0111,0.0051,0.004,-0.0013,-0.0022,-0.0014,-0.0017,-0.0086,-0.0086,-0.0087,-0.0082,0,0,0,0,0,0,0.0227,0.0234,0.0227,0.0229,0.0228,0.0234,0.0202,0.0191,0.0152,0.0143,0.008,0.0069,0.0049,-0.0009,-0.0016,-0.0026,-0.0019,-0.0086,-0.0086,-0.0087,-0.0082,-0.0083,-0.0083,0,0,0,0,0,0.0226,0.0231,0.0228,0.023,0.023,0.0234,0.0228,0.0188,0.0152,0.0137,0.0084,0.0069,-0.0017,-0.0012,-0.002,-0.0031,-0.0085,-0.0086,-0.0087,-0.0082,-0.0082,-0.0083,0,0,0,0,0,0,0.0177,0.0224,0.0219,0.0229,0.0227,0.022,0.0194,0.0175,0.0123,0.0096,0.006,0.0047,-0.0002,-0.0015,-0.0008,-0.0053,-0.0051,-0.0054,-0.0045,-0.0046,-0.0046,-0.0038,-0.0021,0,0,0,0,0,0.0176,0.0198,0.0224,0.0218,0.0223,0.0204,0.0189,0.017,0.014,0.0112,0.0067,0.0024,-0.0002,-0.0026,-0.0054,-0.0079,-0.0079,-0.009,-0.009,-0.009,-0.0089,-0.0101,-0.0103,-0.0089,-0.0089,-0.0089,0,0,0.0146,0.0176,0.0179,0.021,0.0198,0.0206,0.0187,0.0166,0.0153,0.011,0.0048,0.0015,-0.001,-0.0043,-0.0064,-0.0062,-0.0092,-0.0091,-0.0091,-0.009,-0.0102,-0.0104,-0.0105,-0.009,-0.009,-0.009,0,0,0.0114,0.0133,0.0147,0.016,0.0166,0.0172,0.0165,0.015,0.0121,0.0083,0.0046,0.0007,-0.0045,-0.0058,-0.0069,-0.0085,-0.0096,-0.0101,-0.0096,-0.0109,-0.011,-0.0111,-0.0099,-0.0099,-0.0098,-0.0098,-0.0098,0,0.0063,0.0101,0.014,0.0159,0.0163,0.016,0.0163,0.015,0.0107,0.0097,0.0058,-0.001,-0.0043,-0.0056,-0.0073,-0.0085,-0.0093,-0.0092,-0.0109,-0.011,-0.0111,-0.0099,-0.0099,-0.0098,-0.0098,-0.0098,-0.0098,0,0.0066,0.0075,0.0077,0.0118,0.0134,0.0125,0.0148,0.0134,0.01,0.0088,0.0045,-0.0002,-0.0037,-0.0053,-0.0077,-0.0096,-0.0098,-0.0109,-0.0105,-0.0112,-0.0099,-0.0099,-0.0098,-0.0098,-0.0098,-0.0098,0,0,-0.0009,0.0064,0.0056,0.0108,0.011,0.0161,0.0132,0.0149,0.0172,0.0094,0.0099,0.0024,-0.001,-0.0024,-0.0057,-0.0077,-0.0096,-0.0107,-0.0108,-0.0092,-0.0116,-0.0101,-0.01,-0.0122,-0.0123,-0.0123,-0.0098,0,-0.0041,0.0031,0.0045,0.0096,0.0152,0.0153,0.0157,0.0175,0.0165,0.0172,0.0111,0.0095,0.0007,-0.0005,-0.0051,-0.0074,-0.01,-0.0101,-0.0115,-0.0115,-0.0099,-0.0101,-0.0089,-0.0065,-0.0098,-0.0098,-0.0098,0,-0.004,0.0026,0.0076,0.018,0.0198,0.0225,0.0301,0.0297,0.0294,0.0272,0.0218,0.017,0.0112,0.0048,-0.0032,-0.0035,-0.0089,-0.0113,-0.0113,-0.0102,-0.0102,-0.0068,-0.0064,-0.0099,-0.0099,-0.0099,-0.0099,0,0.0017,0.006,0.0125,0.0149,0.0239,0.0273,0.0313,0.0337,0.0367,0.0344,0.0355,0.0258,0.0245,0.0133,0.0039,-0.0005,-0.0013,-0.007,-0.0104,-0.0102,-0.0093,-0.009,-0.0127,-0.0127,-0.0127,-0.0127,-0.0127,0,0.0041,0.0093,0.0177,0.0248,0.0338,0.0374,0.046,0.0474,0.0496,0.055,0.0416,0.0448,0.026,0.0219,0.0093,0.0012,0.0021,-0.0099,-0.0099,-0.0089,-0.0087,-0.0122,-0.0122,-0.0126,-0.0127,-0.0127,-0.0127,0,0.0111,0.0128,0.0232,0.0343,0.0387,0.0466,0.0573,0.0644,0.0631,0.0697,0.0682,0.0612,0.0534,0.0377,0.0257,0.0125,0.0031,0.0003,0.0038,0.004,-0.0071,-0.007,-0.0064,-0.0063,-0.0063,-0.0062,-0.0062,0,0.015,0.0218,0.0347,0.0406,0.0457,0.0573,0.0655,0.07,0.0782,0.0816,0.0873,0.0807,0.0775,0.0606,0.0374,0.0171,0.0116,0.0053,-0.0051,-0.0065,-0.0066,-0.0067,-0.0067,-0.0029,-0.0028,-0.0028,-0.0027,0,0.0235,0.0262,0.0375,0.0512,0.061,0.0716,0.0857,0.0942,0.0986,0.1047,0.1129,0.1104,0.0919,0.0713,0.0431,0.0285,0.0069,0.0055,0.0051,-0.0049,-0.0032,-0.0033,-0.0035,-0.0023,-0.0023,-0.0024,-0.0024,-0.0024,0.027,0.0364,0.0499,0.0614,0.071,0.0836,0.0946,0.1087,0.1211,0.1285,0.1308,0.126,0.1025,0.0639,0.0414,0.0142,0.0127,-0.0005,-0.0007,-0.0009,-0.0012,0.0005,0.0021,0.0021,0.0021,0.0021,0.0021,0,0.0357,0.0467,0.0596,0.0732,0.0829,0.0871,0.1058,0.1153,0.1303,0.1369,0.1417,0.1183,0.0966,0.0687,0.0292,0.0065,0.0021,-0.0016,-0.0032,-0.0033,-0.0035,-0.0042,-0.0015,-0.0016,-0.0016,-0.0017,0,0,0.0415,0.0549,0.0632,0.0779,0.0874,0.1008,0.1099,0.1239,0.1325,0.1384,0.1358,0.1319,0.1013,0.0718,0.042,0.0199,0.0127,0.0151,0.0204,0.0219,0.0219,-0.0002,-0.001,0,0,0,0,0]}],[{"header":{"parameterUnit":"m.s-1","parameterCategory":2,"la1":30.2991,"la2":30.254,"lo1":-89.0895,"lo2":-89.0444,"dy":0.0017,"dx":0.0017,"nx":28,"ny":28,"refTime":"2025-11-11T03:00:00:Z","depth":"4","parameterNumber":2,"parameterNumberName":"U-component_of_CURRENTS"},"data":[0,0,0,0,0,0,0,0,0,0,0,0,0,0,0,0,0,0,0,0,0,0,0,0,0,0,0,0,0,0,0,0,0,0,0,0,0,0,0,0,0,0,0,0,0,0,0,0,0,0,0,0,0,0,0,0,0,0,0.0197,0.0197,0,0.0206,0.0206,0.0206,0.0273,0.0275,0.0276,0.0277,0.0551,0.0557,0.0563,0,0,0,0,0,0,0,0,0,0,0,0,0,0.0153,0.0154,0.0197,0.0197,0.0196,0.0205,0.0206,0.0206,0.0273,0.0275,0.0276,0.0278,0.0549,0.0556,0.0563,0,0,0,0,0,0,0,0,0,0,0,0,0,0.0171,0.0155,0.0197,0.0229,0.0232,0.0205,0.0206,0.0206,0.0273,0.0275,0.0277,0.0279,0.0547,0.0555,0.0564,0.0577,0,0,0.0592,0.0596,0,0,0,0,0,0,0,0,0.017,0.0173,0.0224,0.0227,0.023,0.0238,0.0291,0.0343,0.0272,0.026,0.0277,0.028,0.0468,0.0483,0.048,0.059,0.0601,0.0592,0.0598,0.0602,0.0604,0,0,0,0,0,0,0,0.0169,0.0172,0.0203,0.0224,0.0227,0.0214,0.022,0.0299,0.0359,0.0261,0.0265,0.0262,0.0472,0.0471,0.0488,0.0605,0.0592,0.06,0.0606,0.0609,0.0997,0.1002,0,0,0,0,0,0,0.0165,0.0171,0.0202,0.0203,0.0202,0.0213,0.022,0.0235,0.0352,0.0369,0.026,0.0265,0.0455,0.0477,0.0498,0.0735,0.0602,0.061,0.0615,0.0992,0.0998,0.1004,0,0,0,0,0,0,0.0164,0.0168,0.0202,0.0184,0.0187,0.0212,0.0229,0.0234,0.0269,0.0348,0.0371,0.0292,0.0457,0.0486,0.0631,0.0738,0.0614,0.0622,0.0987,0.0994,0.1001,0.1072,0,0,0,0,0,0,0.0163,0.0168,0.0188,0.0184,0.0188,0.0236,0.0226,0.0233,0.026,0.0267,0.0383,0.0407,0.0461,0.0617,0.064,0.0748,0.0629,0.098,0.099,0.0999,0.1063,0.1081,0.1096,0,0,0,0,0,0.0162,0.0185,0.0189,0.0193,0.0212,0.0238,0.0241,0.0264,0.0259,0.0298,0.0382,0.0406,0.0694,0.0627,0.0653,0.0767,0.0976,0.0987,0.0998,0.1056,0.1077,0.1095,0,0,0,0,0,0,0.0179,0.0193,0.0199,0.0227,0.0251,0.025,0.0279,0.0276,0.0358,0.0389,0.0448,0.0481,0.0656,0.0698,0.0622,0.0911,0.0847,0.0864,0.0883,0.0904,0.092,0.0927,0.0637,0,0,0,0,0,0.0186,0.0214,0.0224,0.0251,0.0268,0.0272,0.0284,0.0308,0.0363,0.0399,0.0468,0.0579,0.0711,0.0793,0.0898,0.1037,0.1011,0.1137,0.1154,0.1167,0.1195,0.1217,0.1235,0.104,0.104,0.104,0,0,0.0194,0.0209,0.0222,0.0257,0.0276,0.0313,0.029,0.0337,0.0386,0.0423,0.0533,0.0632,0.0759,0.0931,0.1015,0.0987,0.1205,0.1181,0.1191,0.1212,0.123,0.1248,0.1264,0.1048,0.1046,0.1045,0,0,0.022,0.0249,0.0279,0.0308,0.0351,0.0366,0.0386,0.0416,0.0461,0.0578,0.0632,0.0783,0.0953,0.1065,0.1147,0.1314,0.1281,0.1371,0.1473,0.1493,0.1507,0.152,0.1471,0.1479,0.1389,0.1389,0.1389,0,0.0229,0.0268,0.0293,0.0334,0.0364,0.0394,0.044,0.0488,0.0564,0.0635,0.0648,0.0926,0.1025,0.1239,0.1327,0.1352,0.1329,0.1377,0.1507,0.152,0.1531,0.1478,0.1485,0.1394,0.1393,0.1393,0.1392,0,0.0269,0.0312,0.034,0.0404,0.0449,0.0501,0.0563,0.0635,0.0699,0.0766,0.0981,0.1103,0.1279,0.135,0.1411,0.1581,0.1523,0.1504,0.1436,0.1553,0.1491,0.1498,0.1401,0.1399,0.1397,0.1396,0,0,0.0258,0.0346,0.0357,0.0406,0.0494,0.0539,0.0648,0.0768,0.0866,0.0994,0.1118,0.1383,0.1453,0.1552,0.1628,0.1683,0.1745,0.1657,0.1656,0.1571,0.1744,0.1661,0.1658,0.174,0.1743,0.1746,0.1649,0,0.0282,0.037,0.0403,0.0503,0.0567,0.0637,0.0724,0.0854,0.0992,0.1121,0.1286,0.1459,0.1526,0.1633,0.1706,0.175,0.1775,0.1771,0.1679,0.1676,0.1557,0.167,0.1755,0.1654,0.1655,0.1656,0.1656,0,0.0313,0.0374,0.0472,0.0578,0.0608,0.0687,0.0869,0.0939,0.1142,0.1251,0.1454,0.1566,0.1748,0.1734,0.1852,0.1846,0.1824,0.1815,0.1809,0.1721,0.1608,0.153,0.1667,0.1666,0.1665,0.1664,0.1664,0,0.0326,0.0422,0.051,0.0548,0.0672,0.0759,0.0829,0.1028,0.1126,0.1344,0.146,0.1659,0.1763,0.18,0.1864,0.1859,0.1898,0.1858,0.1739,0.1727,0.1787,0.1775,0.1889,0.1889,0.189,0.189,0.189,0,0.0341,0.0401,0.0541,0.0595,0.0721,0.0792,0.0966,0.106,0.1229,0.1358,0.153,0.1653,0.1794,0.1857,0.1858,0.1835,0.1889,0.1781,0.1727,0.1815,0.1809,0.1786,0.1776,0.1886,0.1887,0.1888,0.1888,0,0.0329,0.0402,0.0524,0.0683,0.0742,0.084,0.102,0.1133,0.1274,0.1431,0.1499,0.1679,0.1758,0.1835,0.187,0.1824,0.1795,0.1748,0.1815,0.176,0.1591,0.1586,0.1598,0.1595,0.1593,0.1591,0.1589,0,0.0312,0.0393,0.06,0.0682,0.0766,0.0923,0.102,0.1166,0.1264,0.1436,0.1473,0.1628,0.1737,0.1694,0.1769,0.1729,0.1715,0.1655,0.1681,0.163,0.1575,0.1574,0.1573,0.1585,0.1584,0.1583,0.1583,0,0.0306,0.0414,0.051,0.0698,0.0836,0.0935,0.1071,0.1143,0.1263,0.1425,0.1469,0.1531,0.1591,0.1634,0.1629,0.1597,0.1688,0.1627,0.1632,0.1656,0.1613,0.1561,0.1563,0.1574,0.1575,0.1576,0.1576,0,0.0298,0.0386,0.0546,0.0699,0.0826,0.0876,0.0974,0.1061,0.1149,0.1326,0.1337,0.145,0.1574,0.156,0.1547,0.154,0.1515,0.1452,0.1465,0.1476,0.1493,0.1424,0.1304,0,0,0,0,0,0.0316,0.0412,0.053,0.0672,0.0773,0.0831,0.0952,0.103,0.1187,0.1192,0.126,0.1312,0.1351,0.1399,0.1366,0.1474,0.1501,0.1427,0.1429,0.1524,0.1534,0.1574,0,0,0,0,0,0,0.0319,0.044,0.0512,0.059,0.0659,0.0734,0.0793,0.0887,0.0891,0.1064,0.1092,0.1231,0.1281,0.1362,0.1342,0.1358,0.1329,0.1509,0.1505,0.1518,0.1527,0.1536,0.158,0,0,0,0,0]},{"header":{"parameterUnit":"m.s-1","parameterCategory":2,"la1":30.2991,"la2":30.254,"lo1":-89.0895,"lo2":-89.0444,"dy":0.0017,"dx":0.0017,"nx":28,"ny":28,"refTime":"2025-11-11T03:00:00:Z","depth":"4","parameterNumber":3,"parameterNumberName":"V-component_of_CURRENTS"},"data":[0,0,0,0,0,0,0,0,0,0,0,0,0,0,0,0,0,0,0,0,0,0,0,0,0,0,0,0,0,0,0,0,0,0,0,0,0,0,0,0,0,0,0,0,0,0,0,0,0,0,0,0,0,0,0,0,0,0,0.0444,0.0443,0,0.0409,0.0409,0.0409,0.0457,0.0459,0.046,0.0461,0.0503,0.0503,0.0503,0,0,0,0,0,0,0,0,0,0,0,0,0,0.0461,0.0462,0.0444,0.0443,0.0442,0.0409,0.0409,0.0409,0.0457,0.0459,0.046,0.0462,0.0504,0.0503,0.0503,0,0,0,0,0,0,0,0,0,0,0,0,0,0.0446,0.0462,0.0444,0.046,0.0461,0.0409,0.0409,0.0408,0.0456,0.0459,0.0461,0.0463,0.0504,0.0503,0.0503,0.0458,0,0,0.0502,0.0502,0,0,0,0,0,0,0,0,0.0447,0.0446,0.0459,0.0459,0.046,0.0437,0.043,0.0428,0.0456,0.0462,0.0461,0.0464,0.0485,0.0486,0.0478,0.046,0.0461,0.0502,0.0502,0.0502,0.0501,0,0,0,0,0,0,0,0.0448,0.0447,0.0433,0.0458,0.0458,0.0438,0.0439,0.0429,0.0465,0.0461,0.0464,0.0454,0.0486,0.0478,0.0479,0.0462,0.0502,0.0502,0.0501,0.0501,0.0486,0.0485,0,0,0,0,0,0,0.0448,0.0448,0.0434,0.0432,0.0455,0.0436,0.0437,0.0445,0.0464,0.0467,0.0452,0.0457,0.0478,0.048,0.0481,0.0548,0.0502,0.0501,0.0501,0.0486,0.0486,0.0485,0,0,0,0,0,0,0.0449,0.0448,0.0436,0.0436,0.0433,0.0434,0.0441,0.0443,0.0456,0.0456,0.0462,0.0467,0.0479,0.0482,0.0499,0.0546,0.0501,0.0501,0.0486,0.0486,0.0485,0.0605,0,0,0,0,0,0,0.045,0.0449,0.0465,0.0436,0.0432,0.0436,0.0438,0.044,0.0444,0.045,0.0469,0.0474,0.0481,0.0499,0.0498,0.0545,0.0501,0.0486,0.0486,0.0486,0.0602,0.0609,0.0615,0,0,0,0,0,0.0451,0.0465,0.0466,0.0464,0.0451,0.0436,0.0434,0.0442,0.0443,0.046,0.0468,0.0474,0.0496,0.0499,0.0498,0.0545,0.0487,0.0486,0.0486,0.0598,0.0608,0.0615,0,0,0,0,0,0,0.0485,0.0469,0.0471,0.0482,0.0473,0.0445,0.0459,0.0445,0.0459,0.0479,0.0471,0.0476,0.0508,0.0489,0.0492,0.0531,0.0491,0.0491,0.0578,0.0586,0.0593,0.0645,0.05,0,0,0,0,0,0.0494,0.0509,0.0483,0.0498,0.0496,0.0475,0.0471,0.0477,0.0474,0.0483,0.0483,0.0486,0.0496,0.0514,0.0511,0.0531,0.047,0.0554,0.0562,0.0568,0.0605,0.0524,0.0528,0.0484,0.0484,0.0484,0,0,0.0515,0.0505,0.0517,0.0506,0.0504,0.0509,0.0482,0.0494,0.0504,0.0484,0.0508,0.0508,0.05,0.0536,0.0548,0.0537,0.0539,0.0567,0.0574,0.0608,0.0524,0.0528,0.0532,0.0483,0.0483,0.0483,0,0,0.0552,0.0555,0.0577,0.0567,0.0563,0.0552,0.0556,0.0538,0.0546,0.0559,0.0549,0.0575,0.0576,0.0591,0.0597,0.0627,0.057,0.0623,0.0723,0.0643,0.0647,0.065,0.0547,0.054,0.0639,0.0639,0.0639,0,0.0579,0.0598,0.0581,0.0589,0.0598,0.0573,0.06,0.0587,0.0576,0.0598,0.0592,0.0613,0.0608,0.0656,0.069,0.0652,0.0586,0.0703,0.0656,0.0658,0.0659,0.0552,0.0543,0.0645,0.0644,0.0644,0.0643,0,0.0617,0.0638,0.0651,0.0662,0.067,0.069,0.0672,0.0679,0.0686,0.069,0.0735,0.0722,0.075,0.0745,0.0748,0.0768,0.0708,0.0666,0.0646,0.0671,0.0556,0.0544,0.0653,0.0651,0.0649,0.0648,0,0,0.0661,0.0679,0.0683,0.0711,0.0716,0.0728,0.075,0.0778,0.0803,0.0813,0.0846,0.0893,0.0905,0.0909,0.0892,0.0855,0.08,0.0796,0.0789,0.0715,0.0607,0.0585,0.0569,0.0752,0.0752,0.0751,0.0513,0,0.0703,0.0737,0.0743,0.08,0.0823,0.0825,0.0831,0.0856,0.0886,0.0899,0.0913,0.0937,0.0954,0.0975,0.0952,0.0836,0.078,0.0868,0.0577,0.0569,0.0565,0.056,0.075,0.0503,0.0501,0.0498,0.0497,0,0.0741,0.0754,0.0811,0.0864,0.0876,0.0911,0.0964,0.0963,0.0982,0.1001,0.1063,0.1058,0.1062,0.1025,0.0888,0.0945,0.081,0.0703,0.0689,0.0634,0.0528,0.0476,0.0474,0.0476,0.0478,0.0479,0.0481,0,0.0767,0.082,0.0873,0.0885,0.0914,0.0965,0.0988,0.1021,0.1025,0.1068,0.1082,0.1104,0.1061,0.0956,0.081,0.0837,0.0588,0.0567,0.0409,0.0402,0.0441,0.044,0.0433,0.0433,0.0434,0.0434,0.0435,0,0.0791,0.0838,0.0895,0.0913,0.0967,0.0995,0.1051,0.1073,0.1092,0.1101,0.1137,0.1122,0.1041,0.0916,0.0792,0.0575,0.0562,0.0437,0.0353,0.0488,0.0496,0.0429,0.0432,0.0425,0.0427,0.0429,0.043,0,0.0793,0.0822,0.0888,0.0955,0.0977,0.1012,0.1064,0.1093,0.1105,0.1108,0.1118,0.1096,0.0952,0.0831,0.0598,0.0514,0.0318,0.0222,0.036,0.0285,0.0185,0.0196,0.0044,0.0042,0.004,0.0038,0.0036,0,0.0773,0.0827,0.0912,0.0931,0.0972,0.1017,0.1035,0.1084,0.1111,0.1081,0.1071,0.0969,0.0933,0.0589,0.0471,0.0214,0.0181,0.0072,0.019,0.0218,0.0151,0.0166,0.0179,0.0033,0.0033,0.0032,0.0031,0,0.0768,0.0835,0.0857,0.0906,0.096,0.0994,0.1046,0.1057,0.1076,0.1097,0.1021,0.0915,0.0723,0.056,0.0351,0.0175,0.0167,0.005,0.0055,0.0165,0.0202,0.0141,0.0157,0.0024,0.0025,0.0026,0.0026,0,0.0745,0.0773,0.0829,0.0862,0.0916,0.096,0.0996,0.1011,0.1018,0.102,0.0974,0.083,0.0764,0.0527,0.0336,0.0181,0.016,0.0128,0.0128,0.0134,0.0268,0.0336,0.0134,0,0,0,0,0,0.0732,0.0761,0.0786,0.0815,0.0878,0.0918,0.0983,0.1013,0.104,0.0989,0.099,0.083,0.0595,0.0495,0.0331,0.0295,0.0126,0.0098,0.0087,-0.0015,-0.0007,0.0139,0,0,0,0,0,0,0.0704,0.074,0.0755,0.0772,0.0794,0.0863,0.0911,0.0945,0.0913,0.0929,0.0804,0.0777,0.0545,0.0675,0.0319,0.0275,0.0245,0.0,-0.0004,-0.002,-0.0012,-0.0006,0.0147,0,0,0,0,0]}]]